This is the latest recevied weather packets stored in our database for station/object W3SN-13. If no packets are shown the sender has not sent any weather packets the latest 10 day(s).
| Time | Temp. | Humidity | Pressure | Rain* | Wind** | Luminosity | Snow |
|---|---|---|---|---|---|---|---|
| 1787999697 | 23.89° C | 57% | 1013.5 hPa | 0 mm | - | - | - |
| 1787999095 | 24.44° C | 57% | 1013.3 hPa | 0 mm | - | - | - |
| 1787998493 | 23.89° C | 57% | 1013.2 hPa | 0 mm | - | - | - |
| 1787997892 | 24.44° C | 57% | 1013.2 hPa | 0 mm | - | - | - |
| 1787997290 | 24.44° C | 57% | 1013.2 hPa | 0 mm | - | - | - |
| 1787996688 | 25° C | 57% | 1013.2 hPa | 0 mm | - | - | - |
| 1787996087 | 25.56° C | 55% | 1013.1 hPa | 0 mm | - | - | - |
| 1787995485 | 25.56° C | 55% | 1013.2 hPa | 0 mm | - | - | - |
| 1787994884 | 25.56° C | 55% | 1013.4 hPa | 0 mm | - | - | - |
| 1787994282 | 25.56° C | 55% | 1013.3 hPa | 0 mm | - | - | - |
| 1787993681 | 25.56° C | 55% | 1013.4 hPa | 0 mm | - | - | - |
| 1787993079 | 25.56° C | 55% | 1013.4 hPa | 0 mm | - | - | - |
| 1787992478 | 25.56° C | 54% | 1013.4 hPa | 0 mm | - | - | - |
| 1787991875 | 26.11° C | 54% | 1013.4 hPa | 0 mm | - | - | - |
| 1787991273 | 26.11° C | 54% | 1013.5 hPa | 0 mm | - | - | - |
| 1787990671 | 26.11° C | 54% | 1013.5 hPa | 0 mm | - | - | - |
| 1787990069 | 26.11° C | 53% | 1013.4 hPa | 0 mm | - | - | - |
| 1787989468 | 26.11° C | 53% | 1013.4 hPa | 0 mm | - | - | - |
| 1787988881 | 26.11° C | 53% | 1013.5 hPa | 0 mm | - | - | - |
| 1787988265 | 26.67° C | 52% | 1013.5 hPa | 0 mm | - | - | - |
| 1787987664 | 26.67° C | 52% | 1013.5 hPa | 0 mm | - | - | - |
| 1787987062 | 26.67° C | 51% | 1013.5 hPa | 0 mm | - | - | - |
| 1787986461 | 27.22° C | 50% | 1013.5 hPa | 0 mm | - | - | - |
| 1787985859 | 27.78° C | 50% | 1013.6 hPa | 0 mm | - | - | - |
| 1787985258 | 27.78° C | 48% | 1013.4 hPa | 0 mm | - | - | - |
* Rain latest hour (hover to see other rain measurements)
** Current wind speed in m/s (hover to see current wind gust speed)